Regional Weather Roundup
Issued by NWS

Home | Current Version | Previous Version | Graphics & Text | Print | Product List | Glossary On
Versions: 1 2 3 4 5 6 7 8 9 10 11 12 13 14 15 16 17 18 19 20 21 22 23 24 25 26 27 28 29 30 31 32 33 34 35 36 37 38 39 40 41 42 43 44 45 46 47 48 49 50
000
ASUS45 KBOI 230710
RWRID

IDAHO REGIONAL WEATHER ROUNDUP
NATIONAL WEATHER SERVICE BOISE ID
100 AM MDT FRI JUN 23 2017

NOTE: "FAIR" INDICATES FEW OR NO CLOUDS BELOW 12000 FEET
WITH NO SIGNIFICANT WEATHER AND/OR OBSTRUCTIONS TO VISIBILITY

IDZ012-014-230800-
SOUTHWEST IDAHO


CITY           SKY/WX    TMP DP  RH WIND       PRES   REMARKS
BOISE          CLEAR     65  32  29 W9        30.10R
CALDWELL       CLEAR     61  40  45 W13       30.12R
MOUNTAIN HOME  CLEAR     60  35  38 NW12      30.10S
$$

IDZ016-017-230800-
SOUTHCENTRAL IDAHO


CITY           SKY/WX    TMP DP  RH WIND       PRES   REMARKS
BURLEY         CLEAR     61  29  29 SW13      30.13R
JEROME         CLEAR     59  33  37 S8        30.12R
TWIN FALLS     CLEAR     61  25  25 S17G26    30.14R
$$

IDZ019>023-230800-
SOUTHEAST IDAHO


CITY           SKY/WX    TMP DP  RH WIND       PRES   REMARKS
IDAHO FALLS    CLEAR     52  38  58 N8        30.19R
POCATELLO      CLEAR     56  34  43 S12       30.16S
REXBURG        CLEAR     51  37  58 NE8       30.20R
$$

IDZ006-010-011-018-031-032-230800-
CENTRAL IDAHO MOUNTAINS


CITY           SKY/WX    TMP DP  RH WIND       PRES   REMARKS
MCCALL         CLEAR     52  28  39 N8        30.24S
HAILEY         CLEAR     59  30  33 NW3       30.20R
STANLEY          N/A     41  27  57 CALM      30.29S
SALMON         CLEAR     52  30  43 S3        30.22S
CHALLIS        CLEAR     52  23  32 NW7       30.25R
$$

IDZ002-004-006-007-026-230800-
NORTHERN IDAHO


CITY           SKY/WX    TMP DP  RH WIND       PRES   REMARKS
LEWISTON       CLEAR     61  35  37 CALM      30.18R
LOWELL           N/A     52  44  74 CALM      30.24R
COEUR D`ALENE  CLEAR     57  43  59 S5        30.21S
MULLAN PASS    CLEAR     47  27  45 NW6       30.31R
$$



USA.gov is the U.S. government's official web portal to all federal, state and local government web resources and services.